Location: Abraham Lincoln Continuation High School
(33.9711°N, 117.3662°W)
Time: 13:21:52
(UTC+00:00)

Meteor 2-6 Rocket - Pass Details

Date: 21 September 2020
Orbit: 806 x 914 km, 81.3° (Epoch: 29 October)

Event Time Altitude Azimuth Distance (km) Brightness Sun altitude
Exits shadow 11:15:01 73° 114° (ESE) 899 4.3 -29.5°
Maximum altitude 11:15:12 74° 96° (E) 896 4.3 -29.5°
Drops below altitude 10° 11:20:57 10° 12° (NNE) 2,542 7.1 -28.4°
Sets 11:23:27 0° 11° (N) 3,500 7.8 -27.9°
